Regional Weather Roundup
Issued by NWS Kansas City/Pleasant Hill, MO

Home | Current Version | Previous Version | Text Only | Print | Product List | Glossary On
Versions: 1 2 3 4 5 6 7 8 9 10 11 12 13 14 15 16 17 18 19 20 21 22 23 24 25 26 27 28 29 30 31 32 33 34 35 36 37 38 39 40 41 42 43 44 45 46 47 48 49 50
000
ASUS43 KEAX 181210
RWREAX

WEATHER ROUNDUP FOR EASTERN KANSAS AND NORTHWEST MISSOURI
NATIONAL WEATHER SERVICE KANSAS CITY/PLEASANT HILL MO
700 AM CDT FRI APR 18 2014

KSZ040-057-103>105-MOZ028-029-037-043-181300-
...KANSAS CITY METROPOLITAN AREA...

CITY           SKY/WX    TMP DP  RH WIND       PRES   REMARKS
K.C. INTL      PTCLDY    36  32  85 SE3       30.30R FOG
6HR MIN TEMP:  33; 6HR MAX TEMP:  42;

K.C. DOWNTOWN  CLEAR     38  34  85 CALM      30.31R FOG
6HR MIN TEMP:  37; 6HR MAX TEMP:  42;

LEES SUMMIT    CLEAR     36  32  85 CALM      30.30R FOG
6HR MIN TEMP:  36; 6HR MAX TEMP:  41;

OLATHE - IXD   CLEAR     32  30  92 CALM      30.30R FOG
6HR MIN TEMP:  29; 6HR MAX TEMP:  37; 6HR PCP: TRACE;

OLATHE - OJC   CLEAR     35  33  92 CALM      30.29R
6HR MIN TEMP:  32; 6HR MAX TEMP:  38;

LAWRENCE       CLEAR     28  26  92 NW3       30.31R FOG

$$

MOZ001>008-011>017-020>025-030>033-038>040-044>046-053-054-181300-
...NORTHERN AND CENTRAL MISSOURI...

CITY           SKY/WX    TMP DP  RH WIND       PRES   REMARKS
ST. JOSEPH     CLEAR     30  27  88 CALM      30.32R FOG
6HR MIN TEMP:  28; 6HR MAX TEMP:  35;

MOSBY          FAIR      30  30 100 CALM      30.32R FOG
WHITEMAN AFB   PTCLDY    34  32  91 N3        30.30R
6HR MIN TEMP:  31; 6HR MAX TEMP:  39;

CLINTON        CLEAR     36  36 100 CALM      30.30R FOG
SEDALIA        CLEAR     39  37  92 NE3       30.30R FOG
6HR MIN TEMP:  38; 6HR MAX TEMP:  40;

WARSAW         NOT AVBL
MARSHALL         N/A     36  36 100 NW3       30.31  FOG
CHILLICOTHE      N/A     30  27  88 CALM      30.33R
6HR MIN TEMP:  30; 6HR MAX TEMP:  35;

MOBERLY          N/A     36  32  87 CALM      30.32R FOG
KIRKSVILLE     CLEAR     32  29  88 NE6       30.32R WCI  26
6HR MIN TEMP:  29; 6HR MAX TEMP:  37;


$$

MOZ041-047>049-056>058-063>065-088>090-097-181300-
...EASTERN AND SOUTHERN MISSOURI...

CITY           SKY/WX    TMP DP  RH WIND       PRES   REMARKS
ST. LOUIS INTL PTCLDY    48  38  68 NE5       30.30S
6HR MIN TEMP:  45; 6HR MAX TEMP:  53;

SPIRIT OF STL  CLEAR     40  37  89 CALM      30.30R
COLUMBIA       CLEAR     40  38  93 NE7       30.30R FOG
JEFFERSON CITY CLEAR     40  37  89 NW6       30.31R FOG
MEXICO         CLEAR    N/A N/A N/A N3        30.31R FOG
HANNIBAL       CLEAR     39  34  81 N5        30.33R
ROLLA          MOCLDY    41  38  89 NE6       30.27R
LEBANON        PTCLDY    46  39  76 E5        30.28R
OSAGE BEACH    CLEAR     39  36  87 NE3       30.31R
SPRINGFIELD    CLOUDY    45  39  79 NE3       30.26R
BRANSON        PTCLDY    43  39  87 CALM      30.25S
NEVADA         CLEAR     36  36 100 N3        30.31R FOG
JOPLIN         CLEAR     38  38 100 CALM      30.28R FOG
WEST PLAINS    PTCLDY    45  39  79 CALM      30.26R

$$

IAZ060-094-KSZ022-034>040-054-083-096-NEZ052-066-093-181300-
...KANSAS...SOUTHEAST NEBRASKA AND IOWA...

CITY           SKY/WX    TMP DP  RH WIND       PRES   REMARKS
TOPEKA         FOG       31  29  92 E3        30.31R VSB 1/2
6HR MIN TEMP:  31; 6HR MAX TEMP:  39;

MANHATTAN      FOG       30  28  92 CALM      30.29R VSB 3/4
EMPORIA        FOG       30  29  96 S3        30.29R VSB 3/4
CHANUTE        CLEAR     34  32  92 E3        30.29R FOG
WICHITA        FAIR      32  29  88 CALM      30.27R FOG
OMAHA          PTCLDY    30  26  85 CALM      30.28R
LINCOLN        CLEAR     33  26  75 SE3       30.27R HAZE
FALLS CITY     CLEAR     31  28  89 CALM      30.29R FOG
LAMONI         CLEAR     35  31  85 E5        30.30R WCI  31
DES MOINES     PTCLDY    34  29  82 E5        30.33R HAZE    WCI  30

$$




USA.gov is the U.S. government's official web portal to all federal, state and local government web resources and services.